Voltar ao catálogo

NSTAR B

AtivoComunicaçõesGEO
NORAD 23781·PAYLOAD·🇯🇵 Japan

Lançado Feb 5, 1996 de Guiana Space Centre

Loading…

TLE

AtualizadoSource: Space-Track

Época: Sep 14, 2026, 12:11 UTC

1 23781U 96007A   26257.50814196 -.00000048  00000-0  00000-0 0  9992
2 23781  12.9016  25.1266 0007791 273.1609 259.8249  0.99262090111331

Acompanhe NSTAR B em tempo real com AllMySat

Download on the App Store